Lid_Strength_Index
10 11 11 14 14 13 16 16 16 15 13 10 9 9 8 8 7 7 6 5 5 4 3 3 3 2 2 2 2 2 1 2
11 12 11 13 12 14 15 17 19 17 16 15 12 11 9 9 8 7 5 5 5 4 4 3 3 2 2 2 2 2 2 2
11 13 13 14 15 14 14 15 17 19 16 10 11 10 10 8 7 7 6 5 5 4 4 3 3 3 2 2 2 2 2 3
12 11 12 14 14 14 16 16 16 15 14 9 9 9 8 8 7 6 6 5 4 4 4 3 3 3 2 2 2 3 3 5
14 13 13 14 13 14 14 13 16 16 14 9 9 9 8 8 7 7 6 5 5 5 5 4 4 4 3 3 4 4 5 5
13 13 12 12 11 12 13 14 14 14 13 12 10 10 8 8 7 6 6 6 5 6 6 5 5 5 5 5 5 5 6 6
13 12 11 12 11 12 13 13 13 12 13 11 10 9 8 7 7 7 6 6 6 6 6 5 6 6 6 5 5 5 5 4
13 10 10 12 11 11 11 11 12 12 12 9 8 7 8 8 7 7 6 6 6 6 6 6 7 6 5 5 5 5 4 4
14 12 11 14 11 10 10 10 10 13 10 9 9 8 8 8 7 7 6 6 6 5 6 6 6 5 6 6 5 4 4 3
14 13 17 11 9 8 10 9 9 10 9 8 8 7 7 6 6 6 6 5 6 6 6 6 6 6 6 5 5 5 4 4
15 16 13 11 9 10 10 10 8 9 8 8 7 7 8 5 5 5 6 6 6 5 6 6 7 7 6 5 5 5 5 4
15 16 17 11 9 7 8 12 8 8 8 8 8 12 9 6 7 7 7 6 7 7 7 7 7 6 6 6 5 5 4 4
15 15 13 9 8 7 13 11 8 7 7 8 9 8 6 6 7 7 7 8 7 7 7 7 7 6 6 6 5 4 4 3
14 16 15 8 8 10 8 8 7 7 7 7 8 7 6 8 9 9 9 8 7 8 8 7 5 6 6 5 4 4 4 4
12 12 9 8 7 7 6 7 7 7 6 7 7 8 8 10 9 9 9 8 8 7 7 5 5 5 5 5 5 5 4 4
11 9 9 8 7 7 5 6 5 5 7 7 7 8 9 10 9 10 9 10 9 7 5 5 5 5 5 4 4 5 5 5
11 9 8 7 6 6 6 5 6 6 7 8 8 8 9 9 10 10 10 9 7 6 6 6 6 5 5 5 5 5 5 5
12 8 9 8 6 5 6 6 7 8 9 9 9 10 9 10 10 10 10 9 7 7 7 7 6 6 6 5 5 6 6 6
9 7 6 6 5 5 6 7 6 8 9 10 10 10 9 11 10 9 9 9 8 7 7 7 7 7 6 5 5 6 6 5